Weather History for Natchez, MS

Change the Weather History Date:

Tuesday, January 7, 2014

  Actual Average Record
Temperature  
Mean Temperature 24 °F -  
Max Temperature 33 °F 57 °F 77 °F (1989)
Min Temperature 15 °F 39 °F 15 °F (2014)
Degree Days  
Heating Degree Days 41    
Moisture  
Dew Point 9 °F    
Average Humidity 56    
Maximum Humidity 79    
Minimum Humidity 32    
Precipitation  
Precipitation 0.00 in - - ()
Sea Level Pressure  
Sea Level Pressure 30.59 in    
Wind  
Wind Speed 1 mph (NE)    
Max Wind Speed 8 mph    
Max Gust Speed -    
Visibility 10 miles    
Events      
Averages and records for this station are not official NWS values.
T = Trace of Precipitation, MM = Missing Value Source: NWS Daily Summary

Daily Weather History Graph

Daily Weather History Graph

Search for Another Location

Airport:

Trip Planner

Search our weather history database for the weather conditions in past years. The results will help you decide how hot, cold, wet, or windy it might be!

Date:

Astronomy

Jan. 07, 2014 Rise Set
Actual Time 7:05 AM CST 5:17 PM CST
Civil Twilight 6:39 AM CST 5:44 PM CST
Nautical Twilight 6:08 AM CST 6:14 PM CST
Astronomical Twilight 5:39 AM CST 6:43 PM CST
Moon 11:22 AM CST (1/7) No Moon Set
Length of Visible Light 11h 05m
Length of Day
10h 11m
Waxing Crescent, 46% of the Moon is Illuminated
Jan 7
Waxing Crescent
Jan 7
First Quarter
Jan 15
Full
Jan 23
Last Quarter
Jan 30
New

Hourly Weather History & Observations

Time (CST) Temp. Windchill Dew Point Humidity Pressure Visibility Wind Dir Wind Speed Gust Speed Precip Events Conditions
12:15 AM 21.2 °F - 6.8 °F 54% 30.59 in 10.0 mi Calm Calm - N/A   Clear
12:35 AM 17.6 °F - 8.6 °F 68% 30.58 in 10.0 mi Calm Calm - N/A   Clear
12:55 AM 17.6 °F - 10.4 °F 73% 30.60 in 10.0 mi Calm Calm - N/A   Clear
1:15 AM 17.6 °F - 12.2 °F 79% 30.59 in 10.0 mi Calm Calm - N/A   Clear
1:35 AM 17.6 °F - 10.4 °F 73% 30.60 in 10.0 mi Calm Calm - N/A   Clear
1:55 AM 17.6 °F - 10.4 °F 73% 30.60 in 10.0 mi Calm Calm - N/A   Clear
2:15 AM 17.6 °F - 12.2 °F 79% 30.60 in 10.0 mi Calm Calm - N/A   Clear
2:35 AM 17.6 °F - 8.6 °F 68% 30.61 in 10.0 mi Calm Calm - N/A   Clear
2:55 AM 17.6 °F - 10.4 °F 73% 30.61 in 10.0 mi Calm Calm - N/A   Clear
3:15 AM 17.6 °F - 10.4 °F 73% 30.61 in 10.0 mi Calm Calm - N/A   Clear
3:35 AM 15.8 °F - 10.4 °F 79% 30.61 in 10.0 mi Calm Calm - N/A   Clear
3:55 AM 15.8 °F - 10.4 °F 79% 30.61 in 10.0 mi Calm Calm - N/A   Clear
4:15 AM 15.8 °F 10.2 °F 10.4 °F 79% 30.60 in 10.0 mi North 3.5 mph - N/A   Clear
4:35 AM 15.8 °F 10.2 °F 10.4 °F 79% 30.60 in 10.0 mi NW 3.5 mph - N/A   Clear
4:55 AM 17.6 °F - 8.6 °F 68% 30.61 in 10.0 mi Calm Calm - N/A   Clear
5:15 AM 15.8 °F - 10.4 °F 79% 30.62 in 10.0 mi Calm Calm - N/A   Clear
5:35 AM 15.8 °F - 10.4 °F 79% 30.62 in 10.0 mi Calm Calm - N/A   Clear
5:55 AM 15.8 °F - 10.4 °F 79% 30.62 in 10.0 mi Calm Calm - N/A   Clear
6:15 AM 15.8 °F - 8.6 °F 73% 30.62 in 10.0 mi Calm Calm - N/A   Clear
6:35 AM 15.8 °F - 10.4 °F 79% 30.63 in 10.0 mi Calm Calm - N/A   Clear
6:55 AM 15.8 °F - 8.6 °F 73% 30.63 in 10.0 mi Calm Calm - N/A   Clear
7:15 AM 15.8 °F - 10.4 °F 79% 30.63 in 10.0 mi Calm Calm - N/A   Clear
7:35 AM 15.8 °F - 10.4 °F 79% 30.64 in 10.0 mi Calm Calm - N/A   Clear
7:55 AM 15.8 °F - 10.4 °F 79% 30.64 in 10.0 mi Calm Calm - N/A   Clear
8:15 AM 17.6 °F - 12.2 °F 79% 30.64 in 10.0 mi Calm Calm - N/A   Clear
8:35 AM 19.4 °F 11.5 °F 8.6 °F 63% 30.65 in 10.0 mi NE 5.8 mph - N/A   Clear
8:55 AM 21.2 °F 14.9 °F 10.4 °F 63% 30.65 in 10.0 mi ENE 4.6 mph - N/A   Clear
9:15 AM 21.2 °F 16.4 °F 8.6 °F 58% 30.66 in 10.0 mi SE 3.5 mph - N/A   Clear
9:35 AM 23.0 °F 18.4 °F 6.8 °F 50% 30.66 in 10.0 mi East 3.5 mph - N/A   Clear
9:55 AM 24.8 °F 20.5 °F 8.6 °F 50% 30.66 in 10.0 mi SSW 3.5 mph - N/A   Clear
10:15 AM 24.8 °F 20.5 °F 3.2 °F 40% 30.66 in 10.0 mi South 3.5 mph - N/A   Clear
10:35 AM 24.8 °F - 3.2 °F 40% 30.65 in 10.0 mi Calm Calm - N/A   Clear
10:55 AM 26.6 °F - 3.2 °F 37% 30.64 in 10.0 mi Calm Calm - N/A   Clear
11:15 AM 26.6 °F - 3.2 °F 37% 30.63 in 10.0 mi Calm Calm - N/A   Clear
11:35 AM 28.4 °F 23.3 °F 5.0 °F 37% 30.62 in 10.0 mi ENE 4.6 mph - N/A   Clear
11:55 AM 28.4 °F - 6.8 °F 40% 30.61 in 10.0 mi Calm Calm - N/A   Clear
12:15 PM 28.4 °F 22.2 °F 6.8 °F 40% 30.60 in 10.0 mi WSW 5.8 mph - N/A   Clear
12:35 PM 30.2 °F 25.4 °F 8.6 °F 40% 30.58 in 10.0 mi SSW 4.6 mph - N/A   Clear
12:55 PM 30.2 °F 26.7 °F 6.8 °F 37% 30.58 in 10.0 mi WSW 3.5 mph - N/A   Clear
1:15 PM 32.0 °F 24.8 °F 6.8 °F 35% 30.57 in 10.0 mi WNW 8.1 mph - N/A   Clear
1:35 PM 32.0 °F 27.5 °F 6.8 °F 35% 30.56 in 10.0 mi WNW 4.6 mph - N/A   Clear
1:55 PM 32.0 °F 26.4 °F 6.8 °F 35% 30.56 in 10.0 mi NW 5.8 mph - N/A   Clear
2:15 PM 33.8 °F - 6.8 °F 32% 30.55 in 10.0 mi Calm Calm - N/A   Clear
2:35 PM 33.8 °F 29.6 °F 6.8 °F 32% 30.55 in 10.0 mi WNW 4.6 mph - N/A   Clear
2:55 PM 33.8 °F 29.6 °F 6.8 °F 32% 30.54 in 10.0 mi NE 4.6 mph - N/A   Clear
3:15 PM 33.8 °F 29.6 °F 6.8 °F 32% 30.53 in 10.0 mi NNE 4.6 mph - N/A   Clear
3:35 PM 33.8 °F 28.6 °F 8.6 °F 35% 30.53 in 10.0 mi East 5.8 mph - N/A   Clear
3:55 PM 33.8 °F - 6.8 °F 32% 30.53 in 10.0 mi Calm Calm - N/A   Clear
4:15 PM 33.8 °F 30.8 °F 6.8 °F 32% 30.53 in 10.0 mi East 3.5 mph - N/A   Clear
4:35 PM 33.8 °F - 6.8 °F 32% 30.52 in 10.0 mi Calm Calm - N/A   Clear
4:55 PM 33.8 °F 30.8 °F 6.8 °F 32% 30.51 in 10.0 mi East 3.5 mph - N/A   Clear
5:15 PM 33.8 °F - 6.8 °F 32% 30.51 in 10.0 mi Calm Calm - N/A   Clear
5:35 PM 33.8 °F - 8.6 °F 35% 30.51 in 10.0 mi Calm Calm - N/A   Clear
5:55 PM 30.2 °F - 8.6 °F 40% 30.51 in 10.0 mi Calm Calm - N/A   Clear
6:15 PM 30.2 °F - 8.6 °F 40% 30.50 in 10.0 mi Calm Calm - N/A   Clear
6:35 PM 28.4 °F - 8.6 °F 43% 30.50 in 10.0 mi Calm Calm - N/A   Clear
11:15 PM 23.0 °F 18.4 °F 12.2 °F 63% 30.48 in 10.0 mi SSE 3.5 mph - N/A   Clear
11:35 PM 23.0 °F - 12.2 °F 63% 30.48 in 10.0 mi Calm Calm - N/A   Clear
11:55 PM 23.0 °F - 14.0 °F 68% 30.48 in 10.0 mi Calm Calm - N/A   Clear